When you browse on this site, cookies collect data to enhance your experience and personalize the content and advertising you see.
Visit our Privacy Policy to learn more. By continuing to use the site, you agree to this use of cookies and data.
  • In Spain
  • List of Countries
  • For 7 days
  • Water Temperature
  • Weather Map
  • Weather Widgets
  • user-avatar
    Login

    Hourly Weather Beverly

    Today, 22 September, Sunday

    Time Temperature Precipitation Wind Pressure Humidity
    00:00 +14°C° 0 mm 3 mps 755 mmHg 79%
    01:00 +14°C° 0 mm 3 mps 754 mmHg 80%
    02:00 +14°C° 0 mm 3 mps 754 mmHg 82%
    03:00 +16°C° 0 mm 3 mps 753 mmHg 83%
    04:00 +16°C° 0 mm 3 mps 753 mmHg 84%
    05:00 +16°C° 0 mm 3 mps 752 mmHg 84%
    06:00 +16°C° 0 mm 3 mps 752 mmHg 85%
    07:00 +18°C° 0 mm 3 mps 752 mmHg 80%
    08:00 +19°C° 0 mm 3 mps 752 mmHg 75%
    09:00 +20°C° 0 mm 3 mps 751 mmHg 69%
    10:00 +20°C° 0.1 mm 3 mps 751 mmHg 73%
    11:00 +20°C° 0.1 mm 3 mps 751 mmHg 76%
    12:00 +19°C° 0.1 mm 3 mps 751 mmHg 79%
    13:00 +20°C° 0.1 mm 3 mps 751 mmHg 75%
    14:00 +21°C° 0.1 mm 3 mps 751 mmHg 71%
    15:00 +23°C° 0.1 mm 4 mps 751 mmHg 68%
    16:00 +21°C° 0.8 mm 4 mps 751 mmHg 75%
    17:00 +20°C° 0.8 mm 4 mps 751 mmHg 82%
    18:00 +18°C° 0.8 mm 4 mps 751 mmHg 89%
    19:00 +18°C° 0.6 mm 4 mps 751 mmHg 90%
    20:00 +17°C° 0.6 mm 3 mps 751 mmHg 90%
    21:00 +17°C° 0.6 mm 3 mps 752 mmHg 91%
    22:00 +16°C° 0 mm 3 mps 752 mmHg 91%
    23:00 +16°C° 0 mm 3 mps 752 mmHg 92%

    Tomorrow, 23 September, Monday

    Time Temperature Precipitation Wind Pressure Humidity
    00:00 +14°C° 0 mm 3 mps 752 mmHg 92%
    01:00 +14°C° 0 mm 3 mps 753 mmHg 92%
    02:00 +14°C° 0 mm 3 mps 753 mmHg 92%
    03:00 +13°C° 0 mm 3 mps 753 mmHg 92%
    04:00 +13°C° 0 mm 3 mps 753 mmHg 93%
    05:00 +13°C° 0 mm 3 mps 753 mmHg 93%
    06:00 +12°C° 0 mm 3 mps 754 mmHg 94%
    07:00 +13°C° 0 mm 3 mps 754 mmHg 90%
    08:00 +14°C° 0 mm 3 mps 754 mmHg 85%
    09:00 +15°C° 0 mm 4 mps 754 mmHg 80%
    10:00 +17°C° 0 mm 4 mps 755 mmHg 77%
    11:00 +18°C° 0 mm 4 mps 755 mmHg 74%
    12:00 +19°C° 0 mm 4 mps 755 mmHg 70%
    13:00 +19°C° 0 mm 4 mps 755 mmHg 65%
    14:00 +19°C° 0 mm 5 mps 755 mmHg 60%
    15:00 +20°C° 0 mm 5 mps 755 mmHg 55%
    16:00 +19°C° 0 mm 4 mps 755 mmHg 60%
    17:00 +18°C° 0 mm 4 mps 755 mmHg 64%
    18:00 +17°C° 0 mm 4 mps 754 mmHg 69%
    19:00 +17°C° 0.1 mm 4 mps 754 mmHg 73%
    20:00 +15°C° 0.1 mm 5 mps 754 mmHg 77%
    21:00 +15°C° 0.1 mm 6 mps 754 mmHg 81%
    22:00 +15°C° 0.4 mm 6 mps 754 mmHg 83%
    23:00 +15°C° 0.4 mm 6 mps 753 mmHg 86%

    Day after tomorrow, 24 September, Tuesday

    Time Temperature Precipitation Wind Pressure Humidity
    00:00 +15°C° 0.4 mm 7 mps 752 mmHg 89%
    01:00 +15°C° 0.2 mm 6 mps 752 mmHg 89%
    02:00 +15°C° 0.2 mm 6 mps 751 mmHg 90%
    03:00 +15°C° 0.2 mm 5 mps 751 mmHg 91%
    04:00 +15°C° 0.6 mm 5 mps 750 mmHg 92%
    05:00 +16°C° 0.6 mm 5 mps 750 mmHg 93%
    06:00 +17°C° 0.6 mm 4 mps 750 mmHg 94%
    07:00 +16°C° 0.5 mm 5 mps 749 mmHg 90%
    08:00 +17°C° 0.5 mm 5 mps 749 mmHg 86%
    09:00 +19°C° 0.5 mm 6 mps 748 mmHg 82%
    10:00 +18°C° 1.4 mm 7 mps 748 mmHg 82%
    11:00 +17°C° 1.4 mm 7 mps 747 mmHg 83%
    12:00 +17°C° 1.4 mm 8 mps 747 mmHg 83%
    13:00 +16°C° 1 mm 7 mps 747 mmHg 84%
    14:00 +16°C° 1 mm 6 mps 746 mmHg 85%
    15:00 +15°C° 1 mm 5 mps 746 mmHg 86%
    16:00 +15°C° 1 mm 5 mps 746 mmHg 87%
    17:00 +14°C° 1 mm 5 mps 746 mmHg 88%
    18:00 +14°C° 1 mm 5 mps 746 mmHg 90%
    19:00 +14°C° 0.9 mm 5 mps 746 mmHg 90%
    20:00 +14°C° 0.9 mm 5 mps 746 mmHg 90%
    21:00 +14°C° 0.9 mm 4 mps 746 mmHg 91%
    22:00 +14°C° 0.3 mm 5 mps 746 mmHg 91%
    23:00 +14°C° 0.3 mm 5 mps 746 mmHg 91%

    25 September, Wednesday

    Time Temperature Precipitation Wind Pressure Humidity
    00:00 +14°C° 0.3 mm 5 mps 746 mmHg 90%
    01:00 +14°C° 0.1 mm 5 mps 746 mmHg 90%
    02:00 +14°C° 0.1 mm 5 mps 746 mmHg 90%
    03:00 +14°C° 0.1 mm 4 mps 746 mmHg 90%
    04:00 +14°C° 0 mm 4 mps 746 mmHg 91%
    05:00 +14°C° 0 mm 4 mps 746 mmHg 91%
    06:00 +14°C° 0 mm 4 mps 746 mmHg 92%
    07:00 +14°C° 0 mm 3 mps 746 mmHg 91%
    08:00 +16°C° 0 mm 3 mps 747 mmHg 89%
    09:00 +16°C° 0 mm 3 mps 747 mmHg 88%
    10:00 +17°C° 0.1 mm 3 mps 748 mmHg 85%
    11:00 +17°C° 0.1 mm 3 mps 748 mmHg 82%
    12:00 +18°C° 0.1 mm 2 mps 748 mmHg 78%
    13:00 +18°C° 0.4 mm 3 mps 748 mmHg 77%
    14:00 +19°C° 0.4 mm 3 mps 748 mmHg 75%
    15:00 +19°C° 0.4 mm 3 mps 748 mmHg 73%
    16:00 +18°C° 0 mm 3 mps 748 mmHg 76%
    17:00 +17°C° 0 mm 2 mps 749 mmHg 78%
    18:00 +17°C° 0 mm 2 mps 749 mmHg 81%
    19:00 +16°C° 0 mm 2 mps 749 mmHg 82%
    20:00 +16°C° 0 mm 3 mps 749 mmHg 84%
    21:00 +15°C° 0 mm 4 mps 749 mmHg 86%
    22:00 +15°C° 0.2 mm 4 mps 748 mmHg 88%
    23:00 +15°C° 0.2 mm 5 mps 748 mmHg 90%

    26 September, Thursday

    Time Temperature Precipitation Wind Pressure Humidity
    00:00 +15°C° 0.2 mm 5 mps 747 mmHg 93%
    01:00 +15°C° 1.8 mm 6 mps 747 mmHg 92%
    02:00 +16°C° 1.8 mm 6 mps 747 mmHg 91%
    03:00 +16°C° 1.8 mm 6 mps 746 mmHg 90%
    04:00 +16°C° 0.1 mm 6 mps 747 mmHg 88%
    05:00 +16°C° 0.1 mm 6 mps 747 mmHg 87%
    06:00 +15°C° 0.1 mm 6 mps 747 mmHg 86%
    07:00 +16°C° 0 mm 6 mps 747 mmHg 80%
    08:00 +16°C° 0 mm 6 mps 747 mmHg 73%
    09:00 +16°C° 0 mm 6 mps 748 mmHg 66%
    10:00 +17°C° 0 mm 6 mps 748 mmHg 63%
    11:00 +17°C° 0 mm 5 mps 748 mmHg 60%
    12:00 +19°C° 0 mm 5 mps 748 mmHg 57%
    13:00 +19°C° 0.1 mm 5 mps 748 mmHg 59%
    14:00 +17°C° 0.1 mm 5 mps 748 mmHg 62%
    15:00 +17°C° 0.1 mm 5 mps 747 mmHg 65%
    16:00 +16°C° 0.2 mm 5 mps 748 mmHg 70%
    17:00 +15°C° 0.2 mm 5 mps 748 mmHg 75%
    18:00 +14°C° 0.2 mm 4 mps 748 mmHg 80%
    19:00 +14°C° 0 mm 4 mps 748 mmHg 82%
    20:00 +13°C° 0 mm 4 mps 748 mmHg 83%
    21:00 +13°C° 0 mm 4 mps 749 mmHg 85%
    22:00 +12°C° 0 mm 5 mps 749 mmHg 85%
    23:00 +12°C° 0 mm 5 mps 749 mmHg 85%

    27 September, Friday

    Time Temperature Precipitation Wind Pressure Humidity
    00:00 +12°C° 0 mm 5 mps 749 mmHg 84%
    01:00 +12°C° 0 mm 5 mps 748 mmHg 85%
    02:00 +12°C° 0 mm 5 mps 748 mmHg 86%
    03:00 +11°C° 0 mm 6 mps 748 mmHg 87%
    04:00 +12°C° 0 mm 5 mps 748 mmHg 88%
    05:00 +12°C° 0 mm 5 mps 748 mmHg 89%
    06:00 +10°C° 0 mm 5 mps 748 mmHg 90%
    07:00 +12°C° 0 mm 5 mps 749 mmHg 85%
    08:00 +13°C° 0 mm 5 mps 749 mmHg 80%
    09:00 +14°C° 0 mm 5 mps 749 mmHg 75%
    10:00 +15°C° 0 mm 5 mps 749 mmHg 70%
    11:00 +16°C° 0 mm 6 mps 749 mmHg 65%
    12:00 +17°C° 0 mm 6 mps 749 mmHg 61%
    13:00 +17°C° 0.1 mm 6 mps 749 mmHg 61%
    14:00 +17°C° 0.1 mm 7 mps 749 mmHg 62%
    15:00 +17°C° 0.1 mm 7 mps 749 mmHg 62%
    16:00 +16°C° 0 mm 6 mps 749 mmHg 66%
    17:00 +15°C° 0 mm 6 mps 749 mmHg 71%
    18:00 +14°C° 0 mm 6 mps 749 mmHg 75%
    19:00 +14°C° 0 mm 6 mps 748 mmHg 76%
    20:00 +14°C° 0 mm 7 mps 748 mmHg 77%
    21:00 +14°C° 0 mm 7 mps 748 mmHg 78%
    22:00 +13°C° 0.1 mm 8 mps 748 mmHg 80%
    23:00 +13°C° 0.1 mm 8 mps 748 mmHg 81%
    Show more